This is the latest recevied weather packets stored in our database for station/object SV9TNF-56. If no packets are shown the sender has not sent any weather packets the latest 10 day(s).
| Time | Temp. | Humidity | Pressure | Rain* | Wind** | Luminosity | Snow |
|---|---|---|---|---|---|---|---|
| 1788453859 | 25° C | 65% | 1008.1 hPa | 0 mm | 12.52 m/s, 160° | - | - |
| 1788453558 | 25° C | 64% | 1008.5 hPa | 0 mm | 12.52 m/s, 186° | - | - |
| 1788453258 | 25° C | 65% | 1008.5 hPa | 0 mm | 9.83 m/s, 162° | - | - |
| 1788452959 | 25° C | 64% | 1008.5 hPa | 0 mm | 16.54 m/s, 222° | - | - |
| 1788452659 | 25° C | 63% | 1008.5 hPa | 0 mm | 15.2 m/s, 239° | - | - |
| 1788452358 | 25.56° C | 61% | 1008.1 hPa | 0 mm | 9.83 m/s, 204° | - | - |
| 1788452058 | 25.56° C | 60% | 1008.1 hPa | 0 mm | 13.41 m/s, 207° | - | - |
| 1788451758 | 25.56° C | 58% | 1008.5 hPa | 0 mm | 17.88 m/s, 138° | - | - |
| 1788451458 | 25.56° C | 56% | 1008.5 hPa | 0 mm | 23.69 m/s, 246° | - | - |
| 1788451158 | 25.56° C | 54% | 1008.5 hPa | 0 mm | 13.41 m/s, 152° | - | - |
| 1788450858 | 25.56° C | 51% | 1008.1 hPa | 0 mm | 11.18 m/s, 120° | - | - |
| 1788450558 | 25.56° C | 50% | 1008.5 hPa | 0 mm | 14.31 m/s, 254° | - | - |
| 1788450258 | 25.56° C | 53% | 1008.5 hPa | 0 mm | 12.52 m/s, 270° | - | - |
| 1788449958 | 25.56° C | 50% | 1008.5 hPa | 0 mm | 24.59 m/s, 108° | - | - |
| 1788449657 | 25.56° C | 49% | 1008.5 hPa | 0 mm | 26.82 m/s, 246° | - | - |
| 1788449357 | 25.56° C | 51% | 1008.1 hPa | 0 mm | 25.48 m/s, 234° | - | - |
| 1788449057 | 25.56° C | 50% | 1008.5 hPa | 0 mm | 16.09 m/s, 86° | - | - |
| 1788448757 | 25.56° C | 51% | 1008.5 hPa | 0 mm | 17.88 m/s, 162° | - | - |
| 1788448457 | 25.56° C | 52% | 1008.8 hPa | 0 mm | 17.88 m/s, 126° | - | - |
| 1788448157 | 25.56° C | 50% | 1008.5 hPa | 0 mm | 26.38 m/s, 170° | - | - |
| 1788447857 | 25.56° C | 51% | 1008.5 hPa | 0 mm | 31.74 m/s, 145° | - | - |
| 1788447557 | 25.56° C | 55% | 1008.8 hPa | 0 mm | 14.75 m/s, 199° | - | - |
| 1788447257 | 25.56° C | 56% | 1008.8 hPa | 0 mm | 23.25 m/s, 131° | - | - |
| 1788446956 | 26.11° C | 57% | 1008.5 hPa | 0 mm | 22.8 m/s, 156° | - | - |
| 1788446656 | 25.56° C | 58% | 1008.1 hPa | 0 mm | 15.2 m/s, 126° | - | - |
* Rain latest hour (hover to see other rain measurements)
** Current wind speed in m/s (hover to see current wind gust speed)